星链-35049 (STARLINK-35049)

导读 | 豆包AI

STARLINK-35049是美国于2025年9月3日发射的星链系列卫星,归属于SpaceX公司的星链项目。该项目旨在搭建全球卫星互联网星座,为全球偏远地区等提供高速互联网接入服务。这颗卫星延续星链项目标准设计,进一步扩充了星链星座在轨规模,推动全球卫星互联网覆盖能力提升。

基本信息
目录编号:
65444
目录名称:
STARLINK-35049
国际标识:
2025-194L
轨道中心:
EARTH
卫星名称:
星链-35049
卫星全名:
星链-35049 (STARLINK-35049)
卫星状态:
在轨 (已飞行213 天)
发射日期:
2025-09-03 UTC
国别 :
美国 (US)
星等 :
--
轨道信息
数据来源 国际轨道数据 AOE轨道数据
星历时间 2026-04-03T22:03:01+0800
21小时前
查看轨道信息
2026-03-31T09:00:00+0800
4天前
查看轨道信息
半长轴 6927.627km 6927.666km
偏心率 0.000226 0.0002032
轨道倾角 97.603° 97.604°
近地点辐角 86.503° 86.180°
升交点赤经 308.927° 305.434°
平近点角 273.645° 157.634°
近地点 547.924km 548.121km
远地点 551.056km 550.937km
周期 95.639分钟 95.640分钟
每日圈数 15.05657 15.056444
详细信息
固有亮度:
5
最大亮度:
2.5
卫星平台:
Starlink V1.0
覆盖范围:
全球
运营商:
太空探索技术公司
运营商所在国:
美国
制造商(研发单位):
太空探索技术公司
制造商所在国:
美国
使用方式:
暂无
卫星简介
Starlink 计划是 SpaceX 推出的全球卫星互联网项目,通过发射低轨道卫星,为全球尤其是偏远地区提供高速、低延迟的互联网服务。自 2019 年起,Starlink 已部署数千颗卫星,旨在缩小全球数字鸿沟,推动互联网普及。该项目还为军事、航空等行业提供通信支持,带来广泛经济效益。
2D轨道图
3D轨道图
轨道高度分析图
轨道倾角分析图
轨道综合分析图
查看轨道综合分析图